Zurück zum Katalog

ARIANE 3 DEB

LostGTO
NORAD 33539·DEBRIS·🇫🇷 France

Gestartet Sep 8, 1988 von Guiana Space Centre

Loading…

TLE

VeraltetSource: Space-Track

Epoche: Mar 25, 2024, 20:53 UTC

1 33539U 88081P   24085.87059367 -.00000264  00000-0 -12668-1 0  9990
2 33539   7.8928  42.0153 7109372 226.4502  46.9462  2.19827325 26811

Verfolge ARIANE 3 DEB in Echtzeit mit AllMySat

Download on the App Store